Location: Bonny Doon Airfield
(37.0704°N, 122.1252°W)
Time: 01:00:52
(UTC-07:00)

Tiangong 1 - Pass Details

Date: 12 October 2017
Orbit: 292 x 319 km, 42.8° (Epoch: 22 October)

Event Time Altitude Azimuth Distance (km) Brightness Sun altitude
Rises 19:43:55 0° 296° (WNW) 2,041 6.0 -14.5°
Reaches altitude 10° 19:46:02 10° 307° (NW) 1,204 4.4 -14.9°
Maximum altitude 19:48:29 30° 12° (NNE) 587 1.9 -15.4°
Enters shadow 19:48:47 29° 27° (NNE) 600 1.8 -15.5°
